DateTimeUTC,F1_A11,F1_S11,BsB_S11,BsG_S11,BsR_S11,BbsB_S11,BbsG_S11,BbsR_S11,BaB_A11,BaG_A11,BaR_A11,Tu_S11,T_S11,Uu_S11,U_S11,P_S11,T1_A11
2021-08-10T21:00:00Z,00040200,20000000,,,,,,,-000.23,0000.20,0000.20,18.9,25.5,11.7,07.8,0675.6,31.0
2021-08-10T21:01:00Z,00040200,20000000,,,,,,,-000.21,-000.40,0000.05,18.9,25.5,11.7,07.8,0675.6,31.0
2021-08-10T21:02:00Z,00040200,20000000,,,,,,,-000.11,0000.25,-000.03,18.9,25.5,11.7,07.8,0675.6,31.0
2021-08-10T21:03:00Z,00040200,60000000,,,,,,,0000.22,0000.30,0000.32,18.9,25.5,11.7,07.8,0675.6,31.0
2021-08-10T21:04:00Z,00040200,40000000,0002.07,0001.33,0000.93,0000.11,0000.21,-000.02,0000.61,0000.03,0000.12,18.9,25.3,11.8,08.0,0676.6,31.0
2021-08-10T21:05:00Z,00040200,00000000,0002.43,0001.30,0001.00,0000.70,0000.31,0000.03,0000.14,0000.42,0000.31,19.0,25.2,11.8,08.1,0676.6,31.0
2021-08-10T21:06:00Z,00040200,00000000,0001.43,0001.51,0000.91,0000.41,0000.38,0000.21,-000.06,-000.09,0000.27,19.0,25.2,11.8,08.1,0676.7,31.0
2021-08-10T21:07:00Z,00040200,00000000,0001.10,0001.59,0000.99,0000.06,0000.21,-000.17,0000.66,0000.56,0000.27,19.0,25.2,11.8,08.1,0676.6,31.0
2021-08-10T21:08:00Z,00040200,00000000,0001.57,0001.52,0000.98,0000.50,0000.15,0000.06,-000.44,0000.10,0000.14,19.0,25.2,11.8,08.1,0676.7,31.0
2021-08-10T21:09:00Z,00040200,00000000,0001.38,0001.43,0000.91,0000.67,0000.13,0000.03,0000.78,0000.23,0000.53,19.0,25.2,11.8,08.1,0676.8,31.0
2021-08-10T21:10:00Z,00040200,00000000,0001.54,0001.24,0000.78,0000.79,0000.06,0000.31,0000.24,0000.08,0000.00,19.0,25.2,11.8,08.1,0676.7,31.0
2021-08-10T21:11:00Z,00040200,00000000,0001.78,0001.55,0000.71,-000.31,-000.01,0000.03,-000.17,-000.15,0000.09,19.0,25.2,11.7,08.0,0676.7,31.0
2021-08-10T21:12:00Z,00040200,00000000,0001.44,0001.71,0001.17,0000.23,0000.22,-000.00,0000.44,0000.75,0000.29,19.0,25.2,11.8,08.1,0676.7,31.0
2021-08-10T21:13:00Z,00040200,00000000,0001.60,0001.68,0001.27,0000.41,0000.29,0000.16,0000.37,0000.29,0000.33,19.0,25.2,11.8,08.1,0676.7,31.0
2021-08-10T21:14:00Z,00040200,00000000,0001.62,0001.60,0000.97,0000.37,0000.00,0000.26,0000.41,0000.25,0000.36,19.0,25.2,11.9,08.2,0676.8,31.0
2021-08-10T21:15:00Z,00040200,00000000,0001.81,0001.70,0000.99,0000.64,0000.15,-000.10,-000.22,0000.08,0000.25,19.0,25.2,11.8,08.1,0676.7,31.0
2021-08-10T21:16:00Z,00040200,00000000,0001.87,0001.66,0001.01,0000.90,0000.49,-000.26,-000.15,0000.20,0000.12,19.0,25.2,11.9,08.2,0676.8,31.0
2021-08-10T21:17:00Z,00040200,00000000,0002.12,0001.20,0000.73,0000.12,-000.21,0000.05,0000.58,-000.06,0000.15,19.0,25.1,11.9,08.2,0676.8,31.0
2021-08-10T21:18:00Z,00040200,00000000,0001.79,0001.14,0000.95,0000.56,0000.05,-000.09,0000.40,0000.66,0000.58,19.0,25.1,11.9,08.2,0676.7,31.0
2021-08-10T21:19:00Z,00040200,00000000,0001.67,0001.51,0001.24,0000.90,-000.04,0000.24,0000.43,0000.35,-000.05,19.0,25.1,12.1,08.3,0676.8,31.0
2021-08-10T21:20:00Z,00040200,00000000,0001.69,0001.49,0000.96,0000.39,0000.33,0000.15,-000.06,-000.07,0000.55,19.0,25.1,12.1,08.3,0676.8,31.0
2021-08-10T21:21:00Z,00040200,00000000,0001.49,0001.87,0000.70,0000.20,0000.18,0000.09,-000.05,0000.02,-000.12,19.0,25.1,12.0,08.2,0676.8,31.0
2021-08-10T21:22:00Z,00040200,00000000,0001.61,0001.60,0001.02,0000.32,0000.05,0000.02,0000.61,0000.73,0000.32,19.0,25.1,12.1,08.3,0676.8,31.0
2021-08-10T21:23:00Z,00040200,00000000,0000.60,0001.63,0000.93,0000.69,0000.20,-000.16,-000.16,-000.20,0000.04,19.0,25.1,12.1,08.3,0676.8,31.0
2021-08-10T21:24:00Z,00040200,00000000,0001.67,0001.37,0000.89,0000.70,0000.13,0000.08,0000.47,0000.36,0000.57,19.0,25.1,12.1,08.3,0676.8,31.0
2021-08-10T21:25:00Z,00040200,00000000,0001.63,0001.42,0001.03,0000.74,-000.02,0000.08,0000.38,0000.04,0000.28,19.0,25.1,12.1,08.3,0676.8,31.0
2021-08-10T21:26:00Z,00040200,00000000,0001.39,0001.47,0001.19,0001.64,0000.12,0000.23,-000.14,0000.30,-000.04,19.0,25.1,12.1,08.3,0676.8,31.0
2021-08-10T21:27:00Z,00040200,00000000,0002.04,0001.42,0001.07,0000.67,0000.39,0000.19,0000.18,0000.11,0000.16,19.0,25.1,11.9,08.2,0677.0,31.0
2021-08-10T21:28:00Z,00040200,00000000,0001.03,0001.56,0000.94,0000.44,0000.16,-000.08,0000.50,-000.04,0000.45,19.0,25.1,12.0,08.3,0676.9,31.0
2021-08-10T21:29:00Z,00040200,00000000,0001.51,0001.93,0000.98,0001.01,-000.05,0000.11,0000.27,0000.90,0000.38,19.0,25.1,12.2,08.4,0676.9,31.0
2021-08-10T21:30:00Z,00040200,00000000,0001.82,0001.49,0001.12,0000.22,0000.16,0000.07,0000.41,0000.07,0000.34,19.0,25.1,12.1,08.3,0676.9,31.0
2021-08-10T21:31:00Z,00040200,00000000,0001.30,0001.88,0001.18,0000.70,0000.17,0000.05,0000.14,0000.52,0000.26,19.0,25.1,12.2,08.4,0677.0,31.0
2021-08-10T21:32:00Z,00040200,00000000,0002.14,0001.43,0001.12,0000.02,-000.21,-000.03,0000.23,-000.39,0000.40,19.0,25.1,12.1,08.4,0676.9,31.0
2021-08-10T21:33:00Z,00040200,00000000,0001.77,0001.50,0000.98,0000.83,0000.12,-000.26,0000.02,0000.40,0000.08,18.9,25.1,12.3,08.4,0676.9,31.0
2021-08-10T21:34:00Z,00040200,00000000,0001.56,0001.90,0000.91,0000.53,0000.06,0000.18,0000.55,0000.60,0000.36,18.9,25.1,12.2,08.4,0677.0,31.0
2021-08-10T21:35:00Z,00040200,00000000,0001.79,0001.57,0001.44,0000.49,0000.29,0000.22,0000.09,0000.25,0000.33,18.9,25.1,12.3,08.5,0677.0,31.0
2021-08-10T21:36:00Z,00040200,00000000,0001.91,0001.73,0001.17,0000.07,0000.12,0000.18,0000.24,0000.40,0000.19,18.9,25.1,12.2,08.4,0676.9,31.0
2021-08-10T21:37:00Z,00040200,00000000,0001.51,0001.41,0000.99,0001.41,0000.18,-000.02,0000.28,0000.43,0000.40,18.9,25.1,12.2,08.4,0676.9,31.0
2021-08-10T21:38:00Z,00040200,00000000,0002.38,0001.44,0001.32,0000.73,0000.26,-000.03,0000.12,-000.14,-000.02,18.9,25.1,12.2,08.4,0676.9,31.0
2021-08-10T21:39:00Z,00040200,00000000,0002.58,0001.56,0001.11,0000.62,0000.39,-000.01,0000.17,-000.00,0000.14,18.9,25.1,12.2,08.4,0676.9,31.0
2021-08-10T21:40:00Z,00040200,00000000,0002.22,0001.72,0000.88,0000.44,0000.15,0000.12,0000.26,0000.24,-000.02,18.9,25.0,12.2,08.4,0676.9,31.0
2021-08-10T21:41:00Z,00040200,00000000,0002.26,0001.55,0001.04,0000.41,0000.20,0000.31,0000.03,0000.06,0000.40,18.9,25.1,12.1,08.4,0676.9,31.0
2021-08-10T21:42:00Z,00040200,00000000,0002.05,0001.49,0001.01,0001.23,0000.39,-000.03,0000.55,0000.79,0000.44,18.9,25.1,12.3,08.5,0676.9,31.0
2021-08-10T21:43:00Z,00040200,00000000,0002.08,0001.68,0001.16,0000.62,0000.40,-000.04,0000.37,0000.23,0000.32,18.9,25.1,12.3,08.5,0677.0,31.0
2021-08-10T21:44:00Z,00040200,00000000,0002.10,0001.89,0001.26,0000.56,0000.03,0000.06,-000.19,0000.01,0000.55,18.9,25.0,12.3,08.5,0677.0,31.0
2021-08-10T21:45:00Z,00040200,00000000,0001.50,0001.58,0001.26,0000.67,0000.58,0000.14,0000.39,0000.29,0000.20,18.9,25.0,12.3,08.4,0677.1,31.0
2021-08-10T21:46:00Z,00040200,00000000,0001.92,0001.32,0001.47,-000.13,0000.18,0000.27,0000.11,0000.17,0000.30,18.9,25.0,12.3,08.5,0677.1,31.0
2021-08-10T21:47:00Z,00040200,00000000,0001.90,0001.88,0000.75,0000.46,0000.43,0000.24,0000.72,0000.21,0000.21,18.9,25.0,12.3,08.5,0677.2,31.0
2021-08-10T21:48:00Z,00040200,00000000,0002.22,0001.56,0000.68,0000.67,0000.40,-000.30,-000.06,0000.39,-000.03,18.9,25.0,12.4,08.5,0677.1,31.0
2021-08-10T21:49:00Z,00040200,00000000,0002.15,0001.45,0001.36,0000.41,0000.02,0000.26,0000.17,0000.40,0000.50,18.9,25.0,12.4,08.5,0677.2,31.0
2021-08-10T21:50:00Z,00040200,00000000,0002.06,0001.69,0001.24,0000.73,0000.23,0000.23,0000.51,0000.15,0000.26,18.9,25.0,12.4,08.5,0677.2,31.0
2021-08-10T21:51:00Z,00040200,00000000,0001.89,0001.73,0001.34,0000.48,0000.30,0000.35,-000.06,0000.21,0000.29,18.9,25.0,12.4,08.6,0677.2,31.0
2021-08-10T21:52:00Z,00040200,00000000,0001.81,0001.84,0000.96,0001.04,-000.07,0000.26,0000.89,0000.26,0000.10,18.9,25.0,12.3,08.5,0677.2,31.0
2021-08-10T21:53:00Z,00040200,00000000,0002.13,0001.87,0001.39,0000.37,0000.20,0000.02,-000.20,0000.31,0000.40,18.9,25.0,12.5,08.6,0677.2,31.0
2021-08-10T21:54:00Z,00040200,00000000,0001.79,0001.61,0001.43,-000.02,0000.32,0000.20,0000.44,0000.36,0000.20,18.9,25.0,12.4,08.6,0677.2,31.0
2021-08-10T21:55:00Z,00040200,00000000,0002.13,0001.51,0001.16,0000.79,0000.22,-000.04,0000.14,0000.01,0000.29,18.9,25.0,12.4,08.6,0677.2,31.0
2021-08-10T21:56:00Z,00040200,00000000,0002.50,0001.66,0001.31,0000.12,0000.15,0000.07,0000.11,-000.04,0000.35,18.9,25.0,12.4,08.5,0677.1,31.0
2021-08-10T21:57:00Z,00040200,40000000,,,,,,,-000.46,0000.09,-000.04,18.9,25.0,12.3,08.5,0677.2,31.0
2021-08-10T21:58:00Z,00040200,60000000,,,,,,,-000.02,-000.18,-000.43,18.7,25.1,12.3,08.3,0676.1,31.0
2021-08-10T21:59:00Z,00040200,20000000,,,,,,,-000.11,0000.23,0000.08,18.7,25.2,12.3,08.3,0676.1,31.0
